User: anonymous   Login
Location: Blue Mountain Vista Observatory
(40.6992°N, 75.9422°W)
Time: 09:55:20
(UTC-04:00)
Language:

CZ-4C R/B - Orbit

View from above orbital plane
View from above orbital plane
View from above satellite
View from above satellite

Ground track
Ground track

The orbit data is extracted from the following two-line orbital elements,

1 36416U 10009D   18173.77260341 -.00000120 +00000-0 -12842-4 0  9996
2 36416 063.4341 350.0147 0423201 355.6197 004.1182 13.69533406414961
Epoch (UTC): 22 June 2018 18:32:32
Eccentricity: 0.0423201
inclination: 63.4341°
perigee height: 689 km
apogee height: 1313 km
right ascension of ascending node: 350.0147°
argument of perigee: 355.6197°
revolutions per day: 13.69533406
mean anomaly at epoch: 4.1182°
orbit number at epoch: 41496

The dashed part of the orbit path shows where the satellite is in the earth's shadow,  

DLR